User: anonymous   Login
Location: ??????
(30.5519°N, 47.7720°E)
Time: 21:38:58
(UTC+00:00)
Language:

Cosmos 1937 Rocket - Orbit

View from above orbital plane
View from above orbital plane
View from above satellite
View from above satellite

Ground track
Ground track

The orbit data is extracted from the following two-line orbital elements,

1 19039U 88029B   21112.02483529  .00000013  00000-0  12686-4 0  9990
2 19039  74.0483 232.1489 0022878  55.1421 305.1880 14.38506175732843
Epoch (UTC): 22 April 2021 00:35:45
Eccentricity: 0.0022878
inclination: 74.0483°
perigee height: 747 km
apogee height: 780 km
right ascension of ascending node: 232.1489°
argument of perigee: 55.1421°
revolutions per day: 14.38506175
mean anomaly at epoch: 305.1880°
orbit number at epoch: 73284

The dashed part of the orbit path shows where the satellite is in the earth's shadow,  

DLR